Milledgeville, GA

12:22 AM EST on December 08, 2019 (GMT -0500)
Baldwin County

Weather History for KMLJ - November, 2019

Change the Weather History Date:

Monday, November 18, 2019

  Actual Average (WUND) Record (WUND)
Temperature  
Mean Temperature 56 °F -  
Max Temperature 64 °F - - (-1)
Min Temperature 48 °F - - (-1)
Degree Days  
Heating Degree Days 9    
Growing Degree Days 6 (Base 50)    
Moisture  
Dew Point 44 °F    
Average Humidity 69    
Maximum Humidity 94    
Minimum Humidity 34    
Precipitation  
Precipitation 0.00 in - - ()
Sea Level Pressure  
Sea Level Pressure 29.83 in    
Wind  
Wind Speed 2 mph ()    
Max Wind Speed 12 mph    
Max Gust Speed -    
Visibility 10.0 miles    
Events Rain    
Averages and records for this station are not official NWS values.
T = Trace of Precipitation, MM = Missing Value Source: Averaged Metar Reports

Daily Weather History Graph

Daily Weather History Graph

Search for Another Location

Airport or City:

Astronomy

Nov. 18, 2019 Rise Set
Actual Time 7:06 AM EST 5:29 PM EST
Civil Twilight 6:39 AM EST 5:55 PM EST
Nautical Twilight 6:09 AM EST 6:25 PM EST
Astronomical Twilight 5:40 AM EST 6:55 PM EST
Moon 11:13 PM EST (11/18) 12:35 PM EST (11/18)
Length of Visible Light 11h 16m
Length of Day
10h 23m
Waning Gibbous, 63% of the Moon is Illuminated
Nov 18
Waning Gibbous
Nov 19
Last Quarter
Nov 26
New
Dec 4
First Quarter
Dec 12
Full

Hourly Weather History & Observations

Time (EST) Temp. Dew Point Humidity Pressure Visibility Wind Dir Wind Speed Gust Speed Precip Events Conditions
12:15 AM 55.4 °F 51.8 °F 88% 29.90 in 10.0 mi Calm Calm - N/A Rain Rain
12:35 AM 55.4 °F 51.8 °F 88% 29.90 in 10.0 mi Calm Calm - N/A   Light Drizzle
12:55 AM 55.4 °F 50.0 °F 82% 29.90 in 10.0 mi Calm Calm - N/A   Overcast
1:15 AM 55.4 °F 50.0 °F 82% 29.90 in 10.0 mi Calm Calm - N/A   Overcast
2:15 AM 53.6 °F 50.0 °F 88% 29.88 in 10.0 mi Calm Calm - N/A   Overcast
2:35 AM 53.6 °F 50.0 °F 88% 29.88 in 10.0 mi Calm Calm - N/A   Overcast
2:55 AM 53.6 °F 50.0 °F 88% 29.87 in 10.0 mi Calm Calm - N/A Rain Light Rain
3:15 AM 53.6 °F 50.0 °F 88% 29.87 in 10.0 mi ESE 3.5 mph - N/A   Overcast
3:35 AM 53.6 °F 50.0 °F 88% 29.86 in 10.0 mi East 4.6 mph - N/A Rain Rain
3:55 AM 53.6 °F 50.0 °F 88% 29.86 in 10.0 mi Calm Calm - N/A   Overcast
4:35 AM 51.8 °F 50.0 °F 94% 29.87 in 10.0 mi Calm Calm - N/A Rain Light Rain
4:55 AM 53.6 °F 48.2 °F 82% 29.86 in 10.0 mi Calm Calm - N/A   Overcast
5:15 AM 51.8 °F 48.2 °F 88% 29.87 in 10.0 mi SSE 4.6 mph - N/A   Overcast
5:35 AM 51.8 °F 48.2 °F 88% 29.87 in 10.0 mi Calm Calm - N/A   Overcast
5:55 AM 51.8 °F 48.2 °F 88% 29.87 in 10.0 mi South 3.5 mph - N/A   Overcast
6:15 AM 51.8 °F 48.2 °F 88% 29.86 in 10.0 mi Calm Calm - N/A   Overcast
6:35 AM 51.8 °F 48.2 °F 88% 29.86 in 10.0 mi Calm Calm - N/A   Overcast
6:55 AM 51.8 °F 48.2 °F 88% 29.86 in 10.0 mi SSE 3.5 mph - N/A   Overcast
7:15 AM 51.8 °F 48.2 °F 88% 29.87 in 10.0 mi Calm Calm - N/A   Overcast
7:35 AM 51.8 °F 48.2 °F 88% 29.87 in 10.0 mi Calm Calm - N/A   Overcast
7:55 AM 51.8 °F 48.2 °F 88% 29.88 in 10.0 mi Calm Calm - N/A   Overcast
8:15 AM 51.8 °F 48.2 °F 88% 29.89 in 10.0 mi Calm Calm - N/A   Mostly Cloudy
8:35 AM 51.8 °F 48.2 °F 88% 29.89 in 10.0 mi Calm Calm - N/A   Overcast
9:15 AM 51.8 °F 46.4 °F 82% 29.88 in 10.0 mi Calm Calm - N/A   Mostly Cloudy
9:35 AM 53.6 °F 48.2 °F 82% 29.87 in 10.0 mi Calm Calm - N/A   Clear
9:55 AM 55.4 °F 48.2 °F 77% 29.87 in 10.0 mi SSE 3.5 mph - N/A   Clear
10:15 AM 55.4 °F 50.0 °F 82% 29.86 in 10.0 mi SSE 3.5 mph - N/A   Clear
10:35 AM 57.2 °F 50.0 °F 77% 29.86 in 10.0 mi SSE 3.5 mph - N/A   Clear
10:55 AM 59.0 °F 50.0 °F 72% 29.85 in 10.0 mi Calm Calm - N/A   Clear
11:15 AM 60.8 °F 51.8 °F 72% 29.84 in 10.0 mi Calm Calm - N/A   Clear
11:35 AM 60.8 °F 50.0 °F 68% 29.83 in 10.0 mi South 3.5 mph - N/A   Scattered Clouds
11:55 AM 60.8 °F 50.0 °F 68% 29.82 in 10.0 mi Calm Calm - N/A   Scattered Clouds
12:15 PM 62.6 °F 50.0 °F 63% 29.81 in 10.0 mi WSW 5.8 mph - N/A   Mostly Cloudy
12:35 PM 64.4 °F 46.4 °F 52% 29.81 in 10.0 mi West 9.2 mph - N/A   Mostly Cloudy
12:55 PM 64.4 °F 46.4 °F 52% 29.79 in 10.0 mi WNW 9.2 mph - N/A   Scattered Clouds
1:15 PM 64.4 °F 44.6 °F 49% 29.78 in 10.0 mi WSW 5.8 mph - N/A   Scattered Clouds
1:35 PM 64.4 °F 41.0 °F 42% 29.78 in 10.0 mi WNW 11.5 mph - N/A   Clear
1:55 PM 64.4 °F 41.0 °F 42% 29.77 in 10.0 mi WNW 9.2 mph - N/A   Clear
2:15 PM 64.4 °F 37.4 °F 37% 29.76 in 10.0 mi West 3.5 mph - N/A   Clear
2:35 PM 64.4 °F 37.4 °F 37% 29.76 in 10.0 mi West 4.6 mph - N/A   Clear
2:55 PM 64.4 °F 39.2 °F 40% 29.76 in 10.0 mi West 4.6 mph - N/A   Clear
3:15 PM 64.4 °F 39.2 °F 40% 29.75 in 10.0 mi West 4.6 mph - N/A   Clear
3:35 PM 64.4 °F 35.6 °F 34% 29.75 in 10.0 mi West 4.6 mph - N/A   Clear
3:55 PM 62.6 °F 33.8 °F 34% 29.75 in 10.0 mi West 4.6 mph - N/A   Clear
4:15 PM 60.8 °F 35.6 °F 39% 29.76 in 10.0 mi Calm Calm - N/A   Clear
4:35 PM 60.8 °F 37.4 °F 42% 29.76 in 10.0 mi Calm Calm - N/A   Clear
4:55 PM 57.2 °F 41.0 °F 55% 29.76 in 10.0 mi Calm Calm - N/A   Clear
5:15 PM 55.4 °F 42.8 °F 63% 29.77 in 10.0 mi Calm Calm - N/A   Clear
5:35 PM 53.6 °F 42.8 °F 67% 29.77 in 10.0 mi Calm Calm - N/A   Clear
5:55 PM 53.6 °F 42.8 °F 67% 29.78 in 10.0 mi WNW 3.5 mph - N/A   Clear
6:15 PM 53.6 °F 42.8 °F 67% 29.78 in 10.0 mi WNW 3.5 mph - N/A   Clear
6:35 PM 51.8 °F 41.0 °F 67% 29.78 in 10.0 mi Calm Calm - N/A   Clear
6:55 PM 51.8 °F 41.0 °F 67% 29.79 in 10.0 mi Calm Calm - N/A   Clear
7:15 PM 51.8 °F 39.2 °F 62% 29.79 in 10.0 mi Calm Calm - N/A   Clear
7:35 PM 51.8 °F 37.4 °F 58% 29.79 in 10.0 mi NW 3.5 mph - N/A   Clear
7:55 PM 51.8 °F 37.4 °F 58% 29.80 in 10.0 mi NW 3.5 mph - N/A   Clear
8:15 PM 51.8 °F 35.6 °F 54% 29.80 in 10.0 mi Calm Calm - N/A   Clear
8:35 PM 51.8 °F 37.4 °F 58% 29.80 in 10.0 mi NW 3.5 mph - N/A   Clear
8:55 PM 50.0 °F 35.6 °F 58% 29.80 in 10.0 mi Calm Calm - N/A   Clear
9:15 PM 50.0 °F 37.4 °F 62% 29.80 in 10.0 mi Calm Calm - N/A   Clear
9:55 PM 48.2 °F 37.4 °F 66% 29.81 in 10.0 mi Calm Calm - N/A   Clear
10:15 PM 50.0 °F 39.2 °F 66% 29.81 in 10.0 mi WNW 5.8 mph - N/A   Clear
10:35 PM 51.8 °F 41.0 °F 67% 29.81 in 10.0 mi WNW 8.1 mph - N/A   Clear
10:55 PM 50.0 °F 41.0 °F 71% 29.81 in 10.0 mi NW 5.8 mph - N/A   Clear
11:15 PM 51.8 °F 39.2 °F 62% 29.81 in 10.0 mi NNW 3.5 mph - N/A   Clear
11:35 PM 50.0 °F 41.0 °F 71% 29.82 in 10.0 mi Calm Calm - N/A   Clear